Location: Stilling
(56.0622°N, 9.9882°E)
Time: 12:44:22
(UTC+00:00)

Cosmos 332 Rocket - Pass Details

Date: 13 July 2020
Orbit: 682 x 703 km, 74.0° (Epoch: 07 August)

Event Time Altitude Azimuth Distance (km) Brightness Sun altitude
Rises 21:56:22 0° 329° (NNW) 3,059 9.1 -10.0°
Reaches altitude 10° 21:58:45 10° 323° (NW) 2,140 7.7 -10.1°
Maximum altitude 22:03:19 45° 252° (WSW) 936 4.5 -10.3°
Enters shadow 22:07:25 13° 182° (S) 1,963 5.5 -10.5°
